This is the latest recevied weather packets stored in our database for station/object KM5R. If no packets are shown the sender has not sent any weather packets the latest 10 day(s).
| Time | Temp. | Humidity | Pressure | Rain* | Wind** | Luminosity | Snow |
|---|---|---|---|---|---|---|---|
| 1778002030 | 27.78° C | 65% | 1008.8 hPa | 0 mm | - | 723 W/m² | - |
| 1778001727 | 27.78° C | 66% | 1008.9 hPa | 0 mm | - | 494 W/m² | - |
| 1778001427 | 27.78° C | 65% | 1009 hPa | 0 mm | - | 463 W/m² | - |
| 1778001124 | 27.22° C | 65% | 1009.2 hPa | 0 mm | - | 497 W/m² | - |
| 1778000821 | 27.22° C | 65% | 1009.2 hPa | 0 mm | - | 464 W/m² | - |
| 1778000518 | 26.67° C | 67% | 1009.2 hPa | 0 mm | - | 554 W/m² | - |
| 1778000218 | 26.67° C | 68% | 1009.1 hPa | 0 mm | - | 337 W/m² | - |
| 1777999914 | 26.67° C | 67% | 1009.2 hPa | 0 mm | - | 349 W/m² | - |
| 1777999609 | 26.67° C | 67% | 1009.3 hPa | 0 mm | - | 716 W/m² | - |
| 1777999307 | 26.67° C | 68% | 1009.3 hPa | 0 mm | - | 469 W/m² | - |
| 1777999005 | 26.67° C | 68% | 1009.4 hPa | 0 mm | - | 386 W/m² | - |
| 1777998703 | 26.11° C | 68% | 1009.1 hPa | 0 mm | - | 439 W/m² | - |
| 1777998400 | 26.67° C | 68% | 1009.3 hPa | 0 mm | - | 528 W/m² | - |
| 1777998098 | 26.11° C | 69% | 1009.2 hPa | 0 mm | - | 365 W/m² | - |
| 1777997795 | 26.11° C | 69% | 1009.4 hPa | 0 mm | - | 490 W/m² | - |
| 1777997492 | 26.11° C | 69% | 1009.3 hPa | 0 mm | - | 653 W/m² | - |
| 1777997190 | 26.11° C | 70% | 1009.7 hPa | 0 mm | - | 559 W/m² | - |
| 1777996887 | 25.56° C | 70% | 1009.4 hPa | 0 mm | - | 323 W/m² | - |
| 1777996583 | 25.56° C | 71% | 1009.3 hPa | 0 mm | - | 485 W/m² | - |
| 1777996279 | 26.11° C | 70% | 1009.2 hPa | 0 mm | - | 406 W/m² | - |
| 1777995975 | 25.56° C | 71% | 1009 hPa | 0 mm | - | 599 W/m² | - |
| 1777995671 | 25.56° C | 71% | 1008.8 hPa | 0 mm | - | 492 W/m² | - |
| 1777995369 | 25° C | 72% | 1008.8 hPa | 0 mm | - | 443 W/m² | - |
| 1777995066 | 25° C | 73% | 1008.9 hPa | 0 mm | - | 360 W/m² | - |
| 1777994763 | 25° C | 73% | 1008.9 hPa | 0 mm | - | 273 W/m² | - |
* Rain latest hour (hover to see other rain measurements)
** Current wind speed in m/s (hover to see current wind gust speed)